SCP
0 0 0 0 0 0 0 0 0 0 0 0 0 0 0 0 0 0 0 0 0 0 0 0 0 0 0 0 0 0 0 0 0 0 0 0 0 0 0 0 0 0 0
0 0 0 0 0 0 0 0 0 0 0 0 0 0 0 0 0 0 0 0 0 0 0 0 0 0 0 0 0 0 0 0 0 0 0 0 0 0 0 0 0 0 0
0 0 0 0 0 0 0 0 0 0 0 0 0 0 0 0 0 0 0 0 0 0 0 0 0 0 0 0 0 0 0 0 0 0 0 0 0 0 0 0 0 0 0
0 0 0 0 0 0 0 0 0 0 0 0 0 0 0 0 0 0 0 0 0 0 0 0 0 0 0 0 0 0 0 0 0 0 0 0 0 0 0 0 0 0 0
0 0 0 0 0 0 0 0 0 0 0 0 0 0 0 0 0 0 0 0 0 0 0 0 0 0 0 0 0 0 0 0 0 0 0 0 0 0 0 0 0 0 0
0 0 0 0 0 0 0 0 0 0 0 0 0 0 0 0 0 0 0 0 0 0 0 0 0 0 0 0 0 0 0 0 0 0 0 0 0 0 0 0 0 0 0
0 0 0 0 0 0 0 0 0 0 0 0 0 0 0 0 0 0 0 0 0 0 0 0 0 0 0 0 0 0 0 0 0 0 0 0 0 0 0 0 0 0 0
0 0 0 0 0 0 0 0 0 0 0 0 0 0 0 0 0 0 0 0 0 0 0 0 0 0 0 0 0 0 0 0 0 0 0 0 0 0 0 0 0 0 0
0 0 0 0 0 0 0 0 0 0 0 0 0 0 0 0 0 0 0 0 0 0 0 0 0 0 0 0 0 0 0 0 0 0 0 0 0 0 0 0 0 0 0
0 0 0 0 0 0 0 0 0 0 0 0 0 0 0 0 0 0 0 0 0 0 0 0 0 0 0 0 0 0 0 0 0 0 0 0 0 0 0 0 0 0 0
0 0 0 0 0 0 0 0 0 0 0 0 0 0 0 0 0 0 0 0 0 0 0 0 0 0 0 0 0 0 0 0 0 0 0 0 0 0 0 0 0 0 0
0 0 0 0 0 0 0 0 0 0 0 0 0 0 0 0 0 0 0 0 0 0 0 0 0 0 0 0 0 0 0 0 0 0 0 0 0 0 0 0 0 0 0
0 0 0 0 0 0 0 0 0 0 0 0 0 0 0 0 0 0 0 0 0 0 0 0 0 0 0 0 0 0 0 0 0 0 0 0 0 0 0 0 0 0 0
0 0 0 0 0 0 0 0 0 0 0 0 0 0 0 0 0 0 0 0 0 0 0 0 0 0 0 0 0 0 0 0 0 0 0 0 0 0 0 0 0 0 0
0 0 0 0 0 0 0 0 0 0 0 0 0 0 0 0 0 0 0 0 0 0 0 0 0 0 0 0 0 0 0 0 0 0 0 0 0 0 0 0 0 0 0
0 0 0 0 0 0 0 0 0 0 0 0 0 0 0 0 0 0 0 0 0 0 0 0 0 0 0 0 0 0 0 0 0 0 0 0 0 0 0 0 0 0 0
0 0 0 0 0 0 0 0 0 0 0 0 0 0 0 0 0 0 0 0 0 0 0 0 0 0 0 0 0 0 0 0 0 0 0 0 0 0 0 0 0 0 0
0 0 0 0 0 0 0 0 0 0 0 0 0 0 0 0 0 0 0 0 0 0 0 0 0 0 0 0 0 0 0 0 0 0 0 0 0 0 0 0 0 0 0
0 0 0 0 0 0 0 0 0 0 0 0 0 0 0 0 0 0 0 0 0 0 0 0 0 0 0 0 0 0 0 0 0 0 0 0 0 0 0 0 0 0 0
0 0 0 0 0 0 0 0 0 0 0 0 0 0 0 0 0 0 0 0 0 0 0 0 0 0 0 0 0 0 0 0 0 0 0 0 0 0 0 0 0 0 0
0 0 0 0 0 0 0 0 0 0 0 0 0 0 0 0 0 0 0 0 0 0 0 0 0 0 0 0 0 0 0 0 0 0 0 0 0 0 0 0 0 0 0
0 0 0 0 0 0 0 0 0 0 0 0 0 0 0 0 0 0 0 0 0 0 0 0 0 0 0 0 0 0 0 0 0 0 0 0 0 0 0 0 0 0 0
0 0 0 0 0 0 0 0 0 0 0 0 0 0 0 0 0 0 0 0 0 0 0 0 0 0 0 0 0 0 0 0 0 0 0 0 0 0 0 0 0 0 0
0 0 0 0 0 0 0 0 0 0 0 0 0 0 0 0 0 0 0 0 0 0 0 0 0 0 0 0 0 0 0 0 0 0 0 0 0 0 0 0 0 0 0
0 0 0 0 0 0 0 0 0 0 0 0 0 0 0 0 0 0 0 0 0 0 0 0 0 0 0 0 0 0 0 0 0 0 0 0 0 0 0 0 0 0 0
0 0 0 0 0 0 0 0 0 0 0 0 0 0 0 0 0 0 0 0 0 0 0 0 0 0 0 0 0 0 0 0 0 0 0 0 0 0 0 0 0 0 0
Wind_Speed
12 12 13 12 12 12 11 11 10 9 9 8 8 7 6 5 4 3 2 1 3 4 5 6 7 8 8 8 9 9 9 10 13 12 11 12 14 15 14 15 15 15 14
13 13 13 12 12 12 12 11 10 9 9 8 7 7 6 5 3 2 2 3 4 5 6 7 8 7 9 10 8 10 10 10 12 15 13 13 15 15 15 15 14 13 13
13 14 13 13 13 13 12 11 11 10 9 8 7 6 5 4 3 2 3 4 5 6 7 8 9 9 10 9 10 10 9 10 10 12 14 12 12 13 14 13 14 12 14
13 14 13 13 13 12 11 11 10 9 8 7 6 4 3 2 2 3 4 5 6 7 8 8 9 9 9 10 9 10 11 11 12 11 12 12 11 13 11 10 11 11 11
13 13 13 12 12 11 10 10 9 8 7 5 4 3 2 2 5 7 6 6 7 8 8 8 8 8 10 9 10 12 12 11 11 11 11 11 11 10 10 9 10 10 11
12 12 11 11 10 10 9 8 7 6 5 4 3 2 2 5 8 8 9 9 8 9 9 8 8 8 7 11 13 14 16 15 14 12 10 11 12 12 10 10 10 10 8
11 11 10 10 9 8 7 6 5 4 4 3 3 3 4 7 5 6 8 11 10 8 8 8 8 8 10 10 12 16 16 16 17 14 13 13 12 11 11 11 11 11 10
10 9 8 8 8 7 6 6 4 3 3 3 3 4 3 6 5 6 11 11 8 8 8 9 9 10 8 11 14 15 15 14 13 12 11 12 12 11 11 11 11 10 10
9 8 7 7 7 6 6 5 4 4 3 3 3 3 3 5 5 5 11 9 6 9 9 8 9 10 8 11 14 14 14 13 12 12 14 15 15 15 12 9 8 7 8
8 7 7 6 6 6 6 5 4 3 2 2 3 3 3 3 4 3 10 8 7 8 8 8 6 6 11 13 13 12 12 13 14 13 10 9 9 8 9 8 6 6 6
8 8 7 7 6 6 5 4 3 2 3 3 3 2 2 3 2 1 7 8 8 9 8 7 6 7 12 14 14 11 12 15 13 11 8 8 7 6 6 5 4 4 5
8 8 7 6 5 6 5 4 3 2 1 2 3 3 3 2 3 4 6 8 9 10 8 7 8 12 15 16 12 10 15 14 8 8 7 7 7 7 7 7 6 5 4
7 7 6 6 5 4 3 2 1 2 3 3 4 4 5 5 2 2 6 8 9 9 8 9 12 14 15 11 7 12 11 7 7 7 7 6 6 7 7 7 7 7 5
6 5 4 4 4 3 1 2 3 4 4 4 4 5 5 5 5 7 8 8 8 7 8 9 10 10 9 9 9 7 6 6 6 6 6 6 6 6 6 6 6 6 5
3 3 2 2 2 1 1 3 4 5 6 6 7 6 6 7 8 11 9 8 9 9 11 8 7 8 8 8 9 8 7 7 6 5 5 5 5 6 6 6 5 5 5
2 2 1 1 1 1 1 2 4 3 4 1 3 6 6 6 9 10 10 11 12 12 10 6 7 7 8 8 9 9 9 8 8 6 5 4 5 5 5 5 5 5 6
1 1 1 1 1 2 3 3 1 5 5 4 2 1 5 9 9 9 10 13 10 9 6 6 6 7 8 8 9 9 10 10 9 7 6 5 4 5 5 6 6 6 7
1 1 2 2 2 3 3 3 3 3 2 3 4 2 5 7 8 9 11 10 5 5 5 5 6 7 8 8 9 9 9 9 9 8 7 6 5 5 5 6 7 9 8
3 2 2 3 3 3 3 3 3 4 4 4 4 4 5 7 5 5 7 5 5 6 6 6 6 6 7 8 9 9 9 9 10 9 8 7 6 6 6 6 7 8 8
1 4 4 4 2 2 2 3 3 4 4 5 5 5 6 6 5 6 6 6 5 5 6 7 7 7 8 9 9 9 9 9 9 9 9 8 8 7 7 8 7 7 6
2 4 4 2 2 3 3 3 4 4 5 4 4 5 5 5 5 6 5 5 5 6 6 7 7 8 8 9 10 11 11 9 9 9 9 9 9 8 7 7 7 6 6
3 3 2 4 4 4 3 3 4 4 4 4 4 3 2 4 4 5 5 5 5 5 5 6 7 7 8 9 10 10 9 8 8 8 8 9 9 9 9 8 8 8 7
3 3 4 4 4 3 1 3 3 3 4 4 4 4 4 4 4 5 6 6 6 6 6 6 7 8 9 9 9 8 9 8 7 7 7 8 8 8 8 9 11 11 11
3 3 4 4 3 3 3 3 3 4 4 4 4 4 4 5 5 7 6 6 7 6 6 6 7 10 14 11 9 9 9 8 8 5 8 8 8 8 7 8 8 9 8
4 4 3 3 3 3 3 3 4 4 4 5 4 4 5 5 6 6 6 6 8 7 9 8 8 9 13 15 13 11 10 9 7 9 6 6 8 8 8 8 8 8 8
5 4 3 3 3 3 3 4 4 5 5 5 5 5 5 6 7 7 7 7 7 7 8 7 11 12 14 12 14 12 9 9 8 9 8 6 8 9 9 7 9 8 9
Wind_Direction
92 96 98 100 104 105 106 109 110 111 115 115 115 114 113 113 112 103 70 48 337 334 323 320 313 314 305 309 301 294 293 296 297 301 304 304 300 293 291 290 290 289 287
94 95 96 100 102 103 103 104 105 104 103 105 107 107 107 105 97 78 41 358 340 331 326 318 312 312 308 297 302 301 302 301 295 298 301 301 297 296 293 291 289 289 291
97 98 97 99 100 100 102 102 101 99 95 93 95 99 101 98 85 48 5 347 335 327 322 317 314 310 304 306 306 300 299 297 296 295 297 298 296 295 297 296 298 297 294
97 97 97 97 98 97 95 92 92 92 93 94 97 101 101 86 52 14 350 339 329 323 318 312 307 307 306 308 302 301 302 303 300 294 293 296 297 301 305 303 300 298 295
98 96 95 94 92 92 91 90 90 92 98 104 106 101 84 68 37 9 341 331 326 318 314 310 306 308 300 299 305 309 308 303 299 295 295 298 299 304 303 300 295 296 291
100 99 98 96 92 90 91 92 93 96 100 98 83 69 53 62 62 22 339 326 317 312 315 314 306 288 297 292 284 292 296 294 295 295 293 292 295 298 297 295 294 294 293
101 100 100 100 99 100 104 105 108 110 101 81 58 50 71 86 52 3 339 312 307 314 314 309 308 317 307 309 312 305 293 282 278 284 286 288 293 296 299 299 297 295 292
102 102 107 111 114 119 118 115 112 98 81 71 54 40 46 87 51 356 326 295 302 311 308 304 305 308 323 334 318 306 302 301 298 293 291 293 293 296 298 296 296 294 292
111 115 121 124 124 122 113 105 92 85 77 65 52 25 17 92 69 351 323 308 312 313 311 310 307 308 349 331 311 304 306 307 301 289 281 280 280 277 276 286 297 303 308
117 118 115 111 108 102 96 90 86 81 66 35 47 18 1 30 92 346 326 312 321 317 315 311 303 332 329 317 311 306 307 315 316 315 309 300 292 285 262 273 301 308 312
119 112 105 101 97 94 92 85 79 67 50 26 19 12 16 11 105 76 332 325 329 318 313 315 329 348 321 311 303 301 311 309 308 317 326 329 326 324 322 320 323 308 307
119 109 102 97 93 99 100 92 71 29 54 30 15 1 4 8 2 5 315 302 302 308 311 321 333 329 312 301 299 309 306 301 314 333 342 343 340 339 338 335 334 317 291
118 107 103 102 99 98 100 97 81 23 8 9 5 360 356 351 351 300 303 300 289 301 317 316 306 300 299 297 295 298 300 316 336 339 345 348 347 345 345 343 343 340 328
121 115 117 119 126 115 51 24 15 12 8 5 2 355 347 342 352 351 342 334 327 319 325 314 299 290 298 315 314 314 326 337 331 333 339 344 353 358 358 352 346 345 345
131 129 132 119 88 104 78 29 1 36 29 350 354 353 349 346 1 341 324 329 331 333 323 317 338 345 343 341 336 336 336 337 340 338 338 343 350 360 2 360 356 351 356
152 156 154 127 85 318 320 146 121 54 116 131 333 334 347 3 335 325 320 316 313 311 313 339 346 342 336 332 330 333 337 342 344 343 344 354 359 6 9 10 13 10 8
87 55 341 357 358 333 339 343 110 153 172 180 185 332 343 341 334 331 329 322 309 310 328 348 342 334 330 329 329 331 334 341 346 355 2 12 17 20 20 23 22 20 21
285 169 281 310 323 336 348 348 354 12 108 137 158 112 358 346 338 335 331 326 344 351 350 341 333 327 326 325 326 331 335 341 354 6 14 22 31 38 38 37 34 28 28
298 314 313 325 321 341 349 357 20 30 35 38 41 53 12 344 330 334 333 351 350 343 340 335 327 322 322 323 328 334 341 350 4 11 22 32 43 48 48 46 49 44 36
287 71 322 306 327 356 8 24 41 44 49 44 31 17 360 353 358 355 354 352 344 340 336 329 325 324 327 332 339 347 354 3 13 20 28 37 45 50 55 54 50 49 45
17 120 191 264 28 28 35 47 50 51 51 47 42 39 353 345 354 349 346 343 341 338 333 327 324 329 337 342 350 354 358 13 21 22 33 40 44 48 53 56 57 55 52
31 46 55 48 56 50 46 63 63 60 51 41 37 55 19 358 0 350 346 344 339 330 325 321 322 331 343 347 348 350 2 16 20 21 35 45 48 49 50 51 51 47 46
48 65 75 70 78 109 111 72 61 53 47 40 35 31 29 16 0 359 357 350 343 340 337 332 331 344 352 348 349 354 7 12 6 8 23 42 47 47 46 47 49 51 42
57 60 69 75 72 81 82 75 60 49 43 38 31 30 24 13 12 13 8 354 347 347 346 345 347 352 355 357 358 9 18 356 337 360 22 32 37 36 38 37 38 35 39
65 72 72 67 69 77 80 71 59 51 45 37 30 27 24 21 20 18 12 1 354 355 356 359 356 358 2 9 13 11 360 344 338 334 344 26 31 27 21 27 28 32 36
71 79 80 77 74 75 75 71 62 51 47 41 37 34 27 25 26 21 14 7 359 358 359 3 4 13 13 15 16 7 353 349 346 328 321 21 38 29 14 25 30 36 43